[[{"header":{"parameterUnit":"m.s-1","parameterCategory":2,"la1":30.2992,"la2":30.254,"lo1":-89.0895,"lo2":-89.0443,"dy":0.0025,"dx":0.0025,"nx":19,"ny":19,"refTime":"2026-04-04T21:00:00:Z","depth":"0","parameterNumber":2,"parameterNumberName":"U-component_of_CURRENTS"},"data":[0,0,0,-0.2219,-0.2219,-0.2228,-0.2228,-0.2214,-0.2214,0,0,0,0,0,0,0,0,0,0,0,-0.2208,-0.2208,-0.2219,-0.2219,-0.2228,-0.2228,-0.2214,-0.2214,0,0,0,0,0,0,0,0,0,0,0,-0.2208,-0.2208,-0.2209,-0.2219,-0.2228,-0.2228,-0.2214,-0.2212,0,0,0,0,0,0,0,0,0,0,-0.2205,-0.2197,-0.2208,-0.2209,-0.2219,-0.2228,-0.2228,-0.2212,-0.2212,-0.2205,0,-0.2209,0,-0.2218,-0.2213,-0.2213,0,0,0,-0.221,-0.2196,-0.2208,-0.2209,-0.222,-0.2228,-0.2222,-0.2212,-0.2212,-0.2206,-0.2209,-0.2209,-0.2218,-0.2213,-0.2213,-0.2244,-0.2245,0,0,-0.221,-0.22,-0.2208,-0.2208,-0.2224,-0.2221,-0.2222,-0.2212,-0.2207,-0.2209,-0.2209,-0.2217,-0.2213,-0.2213,-0.2244,-0.2244,0,0,0,-0.2214,-0.22,-0.2212,-0.2208,-0.2216,-0.2222,-0.2223,-0.2207,-0.2214,-0.2209,-0.2217,-0.2213,-0.2213,-0.2243,-0.2244,-0.2268,0,0,0,-0.2213,-0.2204,-0.2211,-0.2204,-0.2216,-0.2214,-0.2218,-0.2214,-0.2214,-0.2217,-0.2213,-0.2213,-0.2243,-0.2244,-0.2266,-0.2269,0,0,0,-0.2208,-0.2203,-0.2207,-0.2204,-0.2214,-0.2215,-0.222,-0.2214,-0.2219,-0.2213,-0.2213,-0.2243,-0.2244,-0.2265,-0.2267,-0.2268,0,0,0,-0.2194,-0.2203,-0.2206,-0.2224,-0.2214,-0.2248,-0.222,-0.2233,-0.2231,-0.2213,-0.2243,-0.2244,-0.2264,-0.2266,-0.2267,-0.2115,-0.2108,0,0,-0.2201,-0.2203,-0.2218,-0.2222,-0.2254,-0.2246,-0.2276,-0.2256,-0.2244,-0.2242,-0.2242,-0.2267,-0.2267,-0.2268,-0.2173,-0.2164,0,0,0,-0.2218,-0.2221,-0.2235,-0.2252,-0.2279,-0.2294,-0.2287,-0.2286,-0.2283,-0.225,-0.2281,-0.228,-0.2279,-0.2186,-0.218,-0.207,-0.2249,-0.2249,-0.2248,-0.2186,-0.2217,-0.2236,-0.227,-0.2298,-0.2323,-0.2334,-0.2331,-0.2316,-0.2323,-0.231,-0.2341,-0.2243,-0.2236,-0.2126,-0.2326,-0.2326,-0.2326,-0.2326,-0.2176,-0.2171,-0.2226,-0.2253,-0.2292,-0.2316,-0.2361,-0.2358,-0.2366,-0.2352,-0.2351,-0.2229,-0.2229,-0.2115,-0.2328,-0.2328,-0.2327,-0.2327,-0.2327,-0.2123,-0.2121,-0.2156,-0.2195,-0.2241,-0.2297,-0.2321,-0.2365,-0.2375,-0.2384,-0.2263,-0.226,-0.2148,-0.2377,-0.2377,-0.2377,-0.2377,-0.2377,-0.2377,-0.2029,-0.2068,-0.2065,-0.2132,-0.2149,-0.2205,-0.2294,-0.2305,-0.2292,-0.2272,-0.2271,-0.2135,-0.2356,-0.234,-0.2377,-0.2377,-0.2377,-0.2377,-0.2377,-0.1913,-0.1942,-0.1936,-0.195,-0.2006,-0.199,-0.2132,-0.2121,-0.2159,-0.2111,-0.1992,-0.2206,-0.2178,-0.2181,-0.2162,-0.215,-0.215,-0.215,-0.215,-0.1809,-0.1835,-0.1788,-0.1784,-0.1809,-0.1875,-0.1779,-0.1801,-0.1805,-0.1764,-0.1842,-0.1782,-0.1796,-0.1744,-0.1757,-0.1728,-0.1608,-0.1607,-0.1606,-0.1706,-0.1725,-0.1641,-0.1672,-0.1697,-0.1699,-0.1547,-0.1465,-0.1507,-0.1581,-0.1724,-0.1747,-0.1661,-0.1692,-0.1613,-0.164,-0.1595,0,0]},{"header":{"parameterUnit":"m.s-1","parameterCategory":2,"la1":30.2992,"la2":30.254,"lo1":-89.0895,"lo2":-89.0443,"dy":0.0025,"dx":0.0025,"nx":19,"ny":19,"refTime":"2026-04-04T21:00:00:Z","depth":"0","parameterNumber":3,"parameterNumberName":"V-component_of_CURRENTS"},"data":[0,0,0,-0.0544,-0.0543,-0.0469,-0.0468,-0.0362,-0.0361,0,0,0,0,0,0,0,0,0,0,0,-0.0573,-0.0573,-0.0544,-0.0543,-0.0469,-0.0468,-0.0362,-0.0361,0,0,0,0,0,0,0,0,0,0,0,-0.0573,-0.0573,-0.0573,-0.0543,-0.0469,-0.0468,-0.0362,-0.0418,0,0,0,0,0,0,0,0,0,0,-0.0491,-0.0529,-0.0573,-0.0573,-0.0542,-0.0469,-0.0468,-0.0421,-0.0415,-0.0396,0,-0.0394,0,-0.0378,-0.0354,-0.0354,0,0,0,-0.0531,-0.0535,-0.051,-0.0573,-0.0542,-0.0469,-0.0499,-0.0417,-0.041,-0.0388,-0.0393,-0.0388,-0.0376,-0.0354,-0.0353,-0.0298,-0.0298,0,0,-0.0535,-0.0559,-0.0515,-0.0506,-0.0535,-0.0501,-0.0497,-0.0413,-0.0413,-0.0392,-0.0386,-0.0375,-0.0353,-0.0353,-0.0297,-0.0298,0,0,0,-0.0555,-0.0563,-0.054,-0.0511,-0.05,-0.0499,-0.0494,-0.0417,-0.0409,-0.0385,-0.0373,-0.0353,-0.0352,-0.0297,-0.0297,-0.0373,0,0,0,-0.0557,-0.0575,-0.0543,-0.0556,-0.0502,-0.0461,-0.05,-0.0415,-0.0405,-0.0374,-0.0353,-0.0351,-0.0297,-0.0297,-0.037,-0.0398,0,0,0,-0.0575,-0.0576,-0.0571,-0.0557,-0.0529,-0.0462,-0.0448,-0.0412,-0.0398,-0.0354,-0.035,-0.0297,-0.0297,-0.0368,-0.0395,-0.0377,0,0,0,-0.0596,-0.0613,-0.0572,-0.0586,-0.053,-0.0504,-0.0448,-0.0421,-0.0389,-0.0352,-0.0297,-0.0297,-0.0368,-0.0392,-0.0375,-0.0321,-0.0323,0,0,-0.0633,-0.0618,-0.0627,-0.0588,-0.059,-0.0513,-0.0501,-0.0436,-0.0383,-0.0321,-0.032,-0.0371,-0.0394,-0.0376,-0.0334,-0.0336,0,0,0,-0.0648,-0.0658,-0.0651,-0.064,-0.06,-0.0562,-0.049,-0.0451,-0.0395,-0.0367,-0.0354,-0.0366,-0.0352,-0.0316,-0.0318,-0.0147,-0.0298,-0.0298,-0.0298,-0.0727,-0.0704,-0.0723,-0.0691,-0.0668,-0.0591,-0.0552,-0.0481,-0.0431,-0.0417,-0.0416,-0.0437,-0.04,-0.0401,-0.0226,-0.0403,-0.0404,-0.0404,-0.0404,-0.0799,-0.0814,-0.0781,-0.0792,-0.0736,-0.0711,-0.0609,-0.0561,-0.0489,-0.0458,-0.0441,-0.0383,-0.0407,-0.0219,-0.0409,-0.0408,-0.0407,-0.0407,-0.0406,-0.0858,-0.0864,-0.0863,-0.0873,-0.0856,-0.0785,-0.0749,-0.0658,-0.0558,-0.0544,-0.0453,-0.0451,-0.0292,-0.0524,-0.0525,-0.0525,-0.0525,-0.0525,-0.0525,-0.092,-0.0919,-0.0956,-0.0956,-0.0962,-0.0937,-0.0825,-0.0757,-0.0609,-0.0517,-0.0516,-0.0269,-0.0472,-0.0475,-0.0526,-0.0526,-0.0525,-0.0525,-0.0525,-0.099,-0.0989,-0.1052,-0.1072,-0.1085,-0.1062,-0.0955,-0.076,-0.0659,-0.0568,-0.0249,-0.0479,-0.0437,-0.0434,-0.0434,-0.0471,-0.0471,-0.0471,-0.0471,-0.1038,-0.1042,-0.1125,-0.1169,-0.1193,-0.1121,-0.0985,-0.0741,-0.0375,-0.0174,-0.0131,-0.0079,-0.0089,-0.0023,-0.0029,-0.0019,0.005,0.0051,0.0052,-0.1082,-0.1105,-0.1165,-0.1207,-0.1237,-0.1165,-0.0994,-0.0638,-0.0113,0.009,0.0097,0.0075,0.0166,0.0136,0.0251,0.0229,0.0249,0,0]}],[{"header":{"parameterUnit":"m.s-1","parameterCategory":2,"la1":30.2992,"la2":30.254,"lo1":-89.0895,"lo2":-89.0443,"dy":0.0025,"dx":0.0025,"nx":19,"ny":19,"refTime":"2026-04-04T21:00:00:Z","depth":"2","parameterNumber":2,"parameterNumberName":"U-component_of_CURRENTS"},"data":[0,0,0,-0.2009,-0.201,-0.2045,-0.2045,-0.205,-0.205,0,0,0,0,0,0,0,0,0,0,0,-0.1991,-0.1991,-0.2009,-0.201,-0.2045,-0.2045,-0.205,-0.205,0,0,0,0,0,0,0,0,0,0,0,-0.1991,-0.1991,-0.1992,-0.2011,-0.2045,-0.2045,-0.205,-0.2032,0,0,0,0,0,0,0,0,0,0,-0.2002,-0.1989,-0.1991,-0.1992,-0.2011,-0.2045,-0.2045,-0.2031,-0.2033,-0.2025,0,-0.2033,0,-0.2047,-0.205,-0.205,0,0,0,-0.2003,-0.1988,-0.2005,-0.1992,-0.2011,-0.2045,-0.2028,-0.2033,-0.2034,-0.2027,-0.2034,-0.2034,-0.2047,-0.205,-0.205,-0.2086,-0.2087,0,0,-0.2001,-0.1989,-0.2003,-0.2006,-0.2023,-0.2026,-0.2029,-0.2034,-0.2032,-0.2034,-0.2035,-0.2047,-0.205,-0.205,-0.2086,-0.2087,0,0,0,-0.2001,-0.1988,-0.2005,-0.2005,-0.2018,-0.2028,-0.203,-0.2031,-0.2039,-0.2035,-0.2047,-0.205,-0.205,-0.2086,-0.2086,-0.211,0,0,0,-0.1999,-0.1988,-0.2004,-0.1996,-0.2018,-0.203,-0.2027,-0.2039,-0.204,-0.2047,-0.205,-0.205,-0.2085,-0.2086,-0.2108,-0.211,0,0,0,-0.1989,-0.1987,-0.1994,-0.1995,-0.2016,-0.203,-0.2038,-0.2039,-0.2048,-0.205,-0.205,-0.2085,-0.2086,-0.2107,-0.2108,-0.211,0,0,0,-0.1972,-0.1984,-0.1993,-0.2015,-0.2016,-0.2057,-0.2038,-0.2061,-0.2067,-0.205,-0.2085,-0.2086,-0.2106,-0.2107,-0.2109,-0.1947,-0.1938,0,0,-0.198,-0.1985,-0.2001,-0.2011,-0.2048,-0.2051,-0.2087,-0.2083,-0.2077,-0.2078,-0.2079,-0.2108,-0.2108,-0.211,-0.2,-0.1989,0,0,0,-0.1999,-0.2005,-0.2021,-0.2043,-0.2076,-0.2099,-0.2106,-0.211,-0.2117,-0.2086,-0.2121,-0.212,-0.212,-0.202,-0.2013,-0.2091,-0.209,-0.209,-0.209,-0.197,-0.2002,-0.2024,-0.2063,-0.2094,-0.2131,-0.2147,-0.2153,-0.2145,-0.2156,-0.2148,-0.2178,-0.2073,-0.2065,-0.2163,-0.2163,-0.2163,-0.2163,-0.2163,-0.1963,-0.1963,-0.2018,-0.2051,-0.2095,-0.2126,-0.2176,-0.218,-0.2195,-0.2186,-0.2185,-0.2061,-0.2057,-0.2165,-0.2165,-0.2165,-0.2165,-0.2164,-0.2164,-0.1917,-0.1918,-0.1956,-0.2002,-0.2053,-0.2114,-0.214,-0.2189,-0.2206,-0.2216,-0.2092,-0.2089,-0.2175,-0.2212,-0.2212,-0.2212,-0.2212,-0.2212,-0.2212,-0.1832,-0.1873,-0.1878,-0.1948,-0.197,-0.2028,-0.2119,-0.213,-0.2117,-0.2099,-0.2097,-0.2194,-0.2192,-0.2178,-0.2213,-0.2213,-0.2213,-0.2213,-0.2213,-0.173,-0.176,-0.1761,-0.1781,-0.1838,-0.1819,-0.1956,-0.1939,-0.1978,-0.1928,-0.2024,-0.2029,-0.2,-0.2003,-0.1985,-0.1968,-0.1968,-0.1968,-0.1968,-0.1638,-0.1663,-0.1628,-0.163,-0.165,-0.1708,-0.1601,-0.1594,-0.1677,-0.1686,-0.1699,-0.1644,-0.1659,-0.161,-0.1623,-0.1595,-0.1477,-0.1476,-0.1476,-0.1545,-0.1564,-0.1494,-0.1526,-0.1545,-0.1535,-0.1368,-0.122,-0.1269,-0.1459,-0.164,-0.1929,-0.188,-0.1893,-0.1842,-0.1853,-0.182,0,0]},{"header":{"parameterUnit":"m.s-1","parameterCategory":2,"la1":30.2992,"la2":30.254,"lo1":-89.0895,"lo2":-89.0443,"dy":0.0025,"dx":0.0025,"nx":19,"ny":19,"refTime":"2026-04-04T21:00:00:Z","depth":"2","parameterNumber":3,"parameterNumberName":"V-component_of_CURRENTS"},"data":[0,0,0,-0.0347,-0.0346,-0.0288,-0.0288,-0.0189,-0.0188,0,0,0,0,0,0,0,0,0,0,0,-0.037,-0.037,-0.0347,-0.0346,-0.0288,-0.0288,-0.0189,-0.0188,0,0,0,0,0,0,0,0,0,0,0,-0.037,-0.037,-0.037,-0.0346,-0.0288,-0.0288,-0.0189,-0.0236,0,0,0,0,0,0,0,0,0,0,-0.0295,-0.0329,-0.037,-0.037,-0.0346,-0.0288,-0.0288,-0.0239,-0.0233,-0.0212,0,-0.0213,0,-0.0202,-0.0182,-0.0181,0,0,0,-0.0334,-0.0334,-0.0314,-0.037,-0.0346,-0.0288,-0.0311,-0.0236,-0.023,-0.0205,-0.0212,-0.0208,-0.02,-0.0181,-0.0181,-0.0123,-0.0123,0,0,-0.0337,-0.0358,-0.0319,-0.0311,-0.0343,-0.0313,-0.0309,-0.0232,-0.0233,-0.0212,-0.0206,-0.0198,-0.0181,-0.018,-0.0123,-0.0123,0,0,0,-0.0355,-0.0361,-0.0343,-0.0315,-0.0308,-0.0311,-0.0307,-0.0236,-0.023,-0.0205,-0.0197,-0.018,-0.0179,-0.0123,-0.0123,-0.0198,0,0,0,-0.0356,-0.0371,-0.0345,-0.0357,-0.0311,-0.0276,-0.0313,-0.0235,-0.0226,-0.0198,-0.018,-0.0178,-0.0123,-0.0123,-0.0195,-0.0223,0,0,0,-0.0371,-0.0373,-0.037,-0.0358,-0.0338,-0.0277,-0.0266,-0.0233,-0.0222,-0.0181,-0.0178,-0.0123,-0.0123,-0.0194,-0.0219,-0.0202,0,0,0,-0.0388,-0.0406,-0.037,-0.0386,-0.0338,-0.0316,-0.0267,-0.0243,-0.0215,-0.018,-0.0123,-0.0123,-0.0193,-0.0217,-0.0201,-0.0147,-0.0149,0,0,-0.0423,-0.0411,-0.042,-0.0387,-0.0391,-0.0322,-0.0312,-0.0254,-0.0205,-0.0144,-0.0142,-0.0196,-0.0219,-0.0202,-0.0153,-0.0155,0,0,0,-0.0439,-0.0449,-0.0443,-0.0436,-0.0399,-0.0367,-0.0303,-0.0266,-0.0216,-0.019,-0.0177,-0.0189,-0.0175,-0.014,-0.0141,-0.0123,-0.0123,-0.0123,-0.0123,-0.0513,-0.0492,-0.0512,-0.0484,-0.0462,-0.0393,-0.0358,-0.0293,-0.0246,-0.0235,-0.0236,-0.0256,-0.0219,-0.0219,-0.0222,-0.0222,-0.0223,-0.0223,-0.0223,-0.0582,-0.0598,-0.0567,-0.0581,-0.053,-0.0509,-0.0412,-0.037,-0.0302,-0.0274,-0.0258,-0.0204,-0.0225,-0.0228,-0.0227,-0.0227,-0.0226,-0.0226,-0.0225,-0.0639,-0.0645,-0.0648,-0.0661,-0.0648,-0.0583,-0.0551,-0.0467,-0.0371,-0.0358,-0.0271,-0.0269,-0.0291,-0.0342,-0.0342,-0.0342,-0.0342,-0.0342,-0.0342,-0.0699,-0.07,-0.074,-0.0743,-0.0753,-0.0731,-0.0628,-0.0563,-0.0422,-0.0334,-0.0332,-0.0294,-0.029,-0.0295,-0.0343,-0.0343,-0.0343,-0.0343,-0.0343,-0.0767,-0.0769,-0.0833,-0.0856,-0.087,-0.0847,-0.0748,-0.0562,-0.0467,-0.0379,-0.0296,-0.0297,-0.0255,-0.0252,-0.0254,-0.0289,-0.0289,-0.0289,-0.0289,-0.0814,-0.0819,-0.0903,-0.0948,-0.0968,-0.0898,-0.0763,-0.0532,-0.0331,-0.0221,-0.0224,-0.0201,-0.0204,-0.0158,-0.0157,-0.0156,-0.0165,-0.0165,-0.0165,-0.0856,-0.088,-0.094,-0.0982,-0.1007,-0.0933,-0.0763,-0.0426,-0.0146,-0.0161,-0.0218,-0.0277,-0.025,-0.0253,-0.0184,-0.0182,-0.0181,0,0]}],[{"header":{"parameterUnit":"m.s-1","parameterCategory":2,"la1":30.2992,"la2":30.254,"lo1":-89.0895,"lo2":-89.0443,"dy":0.0025,"dx":0.0025,"nx":19,"ny":19,"refTime":"2026-04-04T21:00:00:Z","depth":"4","parameterNumber":2,"parameterNumberName":"U-component_of_CURRENTS"},"data":[0,0,0,-0.1355,-0.1358,-0.1494,-0.1495,-0.1583,-0.1584,0,0,0,0,0,0,0,0,0,0,0,-0.1309,-0.131,-0.1355,-0.1359,-0.1494,-0.1495,-0.1583,-0.1584,0,0,0,0,0,0,0,0,0,0,0,-0.1309,-0.131,-0.1311,-0.1359,-0.1494,-0.1495,-0.1583,-0.1502,0,0,0,0,0,0,0,0,0,0,-0.1381,-0.135,-0.131,-0.1311,-0.136,-0.1494,-0.1495,-0.1499,-0.1507,-0.1497,0,-0.1526,0,-0.1555,-0.1588,-0.1588,0,0,0,-0.1359,-0.1344,-0.138,-0.1311,-0.1361,-0.1494,-0.1433,-0.1504,-0.1513,-0.1508,-0.1527,-0.1531,-0.1557,-0.1588,-0.1588,-0.1662,-0.1663,0,0,-0.1351,-0.1331,-0.1374,-0.1386,-0.1404,-0.1429,-0.1437,-0.151,-0.152,-0.1528,-0.1534,-0.1558,-0.1588,-0.1589,-0.1662,-0.1663,0,0,0,-0.133,-0.1326,-0.1363,-0.1382,-0.1413,-0.1432,-0.1442,-0.1517,-0.153,-0.1535,-0.1559,-0.1589,-0.159,-0.1662,-0.1662,-0.1683,0,0,0,-0.1325,-0.1314,-0.1359,-0.1349,-0.1412,-0.1479,-0.1447,-0.1525,-0.1535,-0.1559,-0.1589,-0.159,-0.1661,-0.1662,-0.1681,-0.1683,0,0,0,-0.1302,-0.1311,-0.133,-0.1347,-0.1407,-0.1478,-0.1496,-0.1528,-0.1549,-0.1588,-0.159,-0.1661,-0.1662,-0.168,-0.1681,-0.1681,0,0,0,-0.1272,-0.1302,-0.1329,-0.1375,-0.1405,-0.1487,-0.1496,-0.1563,-0.16,-0.1589,-0.1661,-0.1662,-0.1679,-0.168,-0.168,-0.1451,0,0,0,-0.1288,-0.1303,-0.133,-0.1358,-0.1429,-0.1468,-0.1539,-0.1592,-0.1606,-0.163,-0.1633,-0.1682,-0.1681,-0.1681,-0.1504,0,0,0,0,-0.1322,-0.134,-0.1368,-0.142,-0.148,-0.1539,-0.1595,-0.1616,-0.1665,-0.1633,-0.1694,-0.1692,-0.1692,-0.1556,-0.1666,-0.1666,-0.1666,-0.1666,-0.1666,-0.1299,-0.1344,-0.1392,-0.1456,-0.1511,-0.1593,-0.1635,-0.1673,-0.1685,-0.1712,-0.1718,-0.1744,-0.1603,-0.1732,-0.1733,-0.1733,-0.1733,-0.1733,-0.1733,-0.1307,-0.1325,-0.1402,-0.1467,-0.1539,-0.1605,-0.1679,-0.1703,-0.1743,-0.1748,-0.1747,-0.1599,-0.1735,-0.1735,-0.1734,-0.1734,-0.1734,-0.1734,-0.1734,-0.1267,-0.128,-0.1348,-0.1437,-0.1525,-0.1614,-0.1651,-0.1723,-0.1757,-0.177,-0.1619,-0.1754,-0.174,-0.1773,-0.1773,-0.1773,-0.1774,-0.1774,-0.1774,-0.1183,-0.1249,-0.1292,-0.1402,-0.1454,-0.1533,-0.1644,-0.1652,-0.1714,-0.1612,-0.1778,-0.1757,-0.1756,-0.1743,-0.1774,-0.1774,-0.1774,-0.1774,-0.1774,-0.1101,-0.1147,-0.1191,-0.1245,-0.1346,-0.1385,-0.1529,-0.1504,-0.1496,-0.1438,-0.1519,-0.1531,-0.1498,-0.1503,-0.1479,-0.1433,-0.143,-0.1427,0,-0.1023,-0.1056,-0.1088,-0.1127,-0.1154,-0.128,-0.1216,-0.1258,-0.131,-0.1271,-0.1493,-0.1587,-0.1593,-0.1559,-0.1558,-0.153,0,0,0,-0.0954,-0.0982,-0.0965,-0.1032,-0.1055,-0.1081,-0.1186,-0.114,-0.1321,-0.1231,-0.1355,-0.1374,-0.1603,-0.1775,-0.1753,-0.1752,-0.1729,0,0]},{"header":{"parameterUnit":"m.s-1","parameterCategory":2,"la1":30.2992,"la2":30.254,"lo1":-89.0895,"lo2":-89.0443,"dy":0.0025,"dx":0.0025,"nx":19,"ny":19,"refTime":"2026-04-04T21:00:00:Z","depth":"4","parameterNumber":3,"parameterNumberName":"V-component_of_CURRENTS"},"data":[0,0,0,-0.0168,-0.0167,-0.0138,-0.0137,-0.0066,-0.0065,0,0,0,0,0,0,0,0,0,0,0,-0.0178,-0.0178,-0.0168,-0.0167,-0.0138,-0.0137,-0.0066,-0.0065,0,0,0,0,0,0,0,0,0,0,0,-0.0178,-0.0178,-0.0178,-0.0167,-0.0138,-0.0137,-0.0066,-0.0094,0,0,0,0,0,0,0,0,0,0,-0.0126,-0.0147,-0.0178,-0.0178,-0.0167,-0.0138,-0.0137,-0.0096,-0.0092,-0.0073,0,-0.0077,0,-0.0073,-0.006,-0.006,0,0,0,-0.0157,-0.015,-0.0142,-0.0178,-0.0167,-0.0138,-0.0148,-0.0094,-0.009,-0.0068,-0.0076,-0.0073,-0.0072,-0.006,-0.006,-0.0012,-0.0012,0,0,-0.0158,-0.0169,-0.0144,-0.014,-0.0169,-0.0149,-0.0147,-0.0092,-0.0092,-0.0075,-0.0072,-0.0071,-0.0059,-0.0059,-0.0012,-0.0012,0,0,0,-0.017,-0.0171,-0.0164,-0.0142,-0.0142,-0.0148,-0.0146,-0.0094,-0.0092,-0.0071,-0.007,-0.0059,-0.0058,-0.0012,-0.0012,-0.0075,0,0,0,-0.0171,-0.0178,-0.0165,-0.0171,-0.0143,-0.0123,-0.015,-0.0096,-0.009,-0.007,-0.0059,-0.0058,-0.0012,-0.0012,-0.0073,-0.0099,0,0,0,-0.0178,-0.0179,-0.0179,-0.0171,-0.0163,-0.0124,-0.0118,-0.0094,-0.0089,-0.006,-0.0057,-0.0012,-0.0012,-0.0072,-0.0096,-0.0086,0,0,0,-0.0185,-0.0201,-0.0179,-0.0196,-0.0164,-0.0155,-0.0119,-0.0106,-0.0086,-0.0059,-0.0012,-0.0012,-0.0071,-0.0095,-0.0085,-0.0075,0,0,0,-0.0211,-0.0205,-0.0214,-0.0194,-0.0206,-0.0157,-0.0155,-0.0114,-0.0075,-0.0026,-0.0025,-0.0074,-0.0096,-0.0086,-0.0073,0,0,0,0,-0.0227,-0.0237,-0.0235,-0.0236,-0.0215,-0.0198,-0.0152,-0.0124,-0.0085,-0.0065,-0.0055,-0.0067,-0.0059,-0.0049,-0.0012,-0.0012,-0.0012,-0.0012,-0.0012,-0.0275,-0.0267,-0.0288,-0.0277,-0.0266,-0.0221,-0.0198,-0.0147,-0.0109,-0.0099,-0.0105,-0.0123,-0.0115,-0.0089,-0.009,-0.009,-0.009,-0.009,-0.0091,-0.0327,-0.0342,-0.0332,-0.0352,-0.0324,-0.0314,-0.0244,-0.0212,-0.0161,-0.0135,-0.0123,-0.01,-0.0096,-0.0095,-0.0094,-0.0094,-0.0093,-0.0093,-0.0093,-0.0363,-0.037,-0.0386,-0.0413,-0.0417,-0.0377,-0.0358,-0.0296,-0.022,-0.0212,-0.0166,-0.0148,-0.0157,-0.0199,-0.02,-0.02,-0.02,-0.02,-0.02,-0.0393,-0.0407,-0.045,-0.0474,-0.0495,-0.0491,-0.0423,-0.0374,-0.029,-0.0226,-0.0223,-0.0158,-0.0155,-0.0161,-0.0201,-0.0201,-0.0201,-0.0201,-0.02,-0.0428,-0.0442,-0.0506,-0.054,-0.0577,-0.0566,-0.0513,-0.0386,-0.0328,-0.0258,-0.0215,-0.0214,-0.0182,-0.0177,-0.0183,-0.0232,-0.0232,-0.0232,0,-0.045,-0.0461,-0.0545,-0.0597,-0.0624,-0.06,-0.0516,-0.0438,-0.0323,-0.0317,-0.0339,-0.0297,-0.0293,-0.0264,-0.0259,-0.027,0,0,0,-0.0469,-0.0497,-0.055,-0.0606,-0.0637,-0.0542,-0.0487,-0.0436,-0.0343,-0.027,-0.0232,-0.0232,-0.0254,-0.0205,-0.0151,-0.0147,-0.0153,0,0]}]]